Location: Platte
(43.3870°N, 98.8440°W)
Time: 13:16:25
(UTC-06:00)

Landsat 7 - Visible Passes

Search period start: 28 February 2015 00:00
Search period end: 10 March 2015 01:00
Orbit: 701 x 703 km, 98.2° (Epoch: 28 February)

Date Brightness Start Highest point End Pass type
(mag) Time Alt. Az. Time Alt. Az. Time Alt. Az.
06 Mar 6.7 22:09:55 10° N 22:09:55 10° N 22:09:59 10° N visible
07 Mar 6.4 21:14:11 10° NNE 21:14:11 10° NNE 21:14:14 10° NNE visible
08 Mar 6.5 22:57:21 12° N 22:57:21 12° N 22:57:42 10° N visible
09 Mar 6.3 22:01:37 10° NNE 22:01:37 10° NNE 22:01:37 10° NNE visible
